sat.trackr.live / text

‹ back to catalog

STARLINK-35354

NORAD 66477 · 2025-262X

PAYLOAD ACTIVE UNKNOWN

§ Identity

Operator
Country
US
Launch date
2025-11-15
Launch site
AFETR
Launch vehicle
Mass (kg)
RCS (m²)

Purposes: comms

External: N2YO · Heavens-Above · Gunter

§ Orbital elements

Epoch: 2026-05-25T05:23:40.089120Z

Period
94.27 min
Inclination
42.9994°
Eccentricity
0.0001640
Mean motion
15.27606963 rev/d
Perigee alt
481.8 km
Apogee alt
484.1 km
Semi-major
6,861.1 km
B*
5.7503e-4
RAAN
223.7445°
Arg perigee
270.7740°
Mean anomaly
89.2924°
Rev number
3,061

§ Raw data

STARLINK-353541 66477U 25262X   26145.22476955  .00015608  00000+0  57503-3 0  99972 66477  42.9994 223.7445 0001640 270.7740  89.2924 15.27606963 30613

JSON: /api/v1/satellites/66477 · /tle

For live sub-satellite position, see the globe view (requires WebGL).

§ Visibility from observer

Set your observer location to see the next 7 days of passes ≥ 10°. The values pass through the URL so the page stays shareable.

No JS? Fill the form by hand. The geolocation button needs JavaScript.